Location: Unspecified
(51.0000°N, 12.0000°E)
Time: 08:44:18
(UTC+02:00)

ISS - Pass Details

Date: 10 February 2018
Orbit: 402 x 406 km, 51.6° (Epoch: 21 June)

Event Time Altitude Azimuth Distance (km) Brightness Sun altitude
Rises 18:31:22 0° 285° (WNW) 2,321 1.4 -11.8°
Reaches altitude 10° 18:33:35 10° 274° (W) 1,459 0.4 -12.1°
Maximum altitude 18:36:31 31° 211° (SSW) 733 -2.1 -12.6°
Drops below altitude 10° 18:39:27 10° 146° (SSE) 1,455 -1.3 -13.0°
Enters shadow 18:39:56 - 143° (SE) 1,636 -1.1 -13.1°
